When you browse on this site, cookies collect data to enhance your experience and personalize the content and advertising you see.
Visit our Privacy Policy to learn more. By continuing to use the site, you agree to this use of cookies and data.
  • In Hungary
  • List of Countries
  • For 7 days
  • Water Temperature
  • Satellite Maps
  • Weather Map
  • News
  • Weather Widgets
  • user-avatar
    Login

    Hourly Weather Hajdaszek

    Today, 20 May, Monday

    Time Temperature Precipitation Wind Pressure Humidity
    00:00 +14°C° 0 mm 3 mps 735 mmHg 92%
    01:00 +13°C° 0 mm 3 mps 735 mmHg 93%
    02:00 +13°C° 0 mm 3 mps 735 mmHg 94%
    03:00 +13°C° 0 mm 3 mps 734 mmHg 94%
    04:00 +13°C° 0 mm 3 mps 734 mmHg 95%
    05:00 +15°C° 0 mm 4 mps 734 mmHg 92%
    06:00 +16°C° 0 mm 5 mps 734 mmHg 88%
    07:00 +19°C° 0 mm 6 mps 734 mmHg 85%
    08:00 +20°C° 0 mm 6 mps 734 mmHg 77%
    09:00 +22°C° 0 mm 6 mps 734 mmHg 69%
    10:00 +24°C° 0 mm 7 mps 734 mmHg 61%
    11:00 +24°C° 0 mm 7 mps 734 mmHg 59%
    12:00 +26°C° 0 mm 7 mps 734 mmHg 56%
    13:00 +27°C° 0 mm 7 mps 734 mmHg 54%
    14:00 +26°C° 0 mm 7 mps 734 mmHg 56%
    15:00 +24°C° 0 mm 6 mps 734 mmHg 59%
    16:00 +24°C° 0 mm 6 mps 734 mmHg 61%
    17:00 +22°C° 0 mm 5 mps 734 mmHg 68%
    18:00 +21°C° 0 mm 5 mps 734 mmHg 74%
    19:00 +19°C° 0 mm 4 mps 734 mmHg 81%
    20:00 +18°C° 0 mm 3 mps 734 mmHg 82%
    21:00 +17°C° 0 mm 3 mps 734 mmHg 84%
    22:00 +16°C° 0 mm 3 mps 734 mmHg 86%
    23:00 +15°C° 0 mm 2 mps 734 mmHg 87%

    Tomorrow, 21 May, Tuesday

    Time Temperature Precipitation Wind Pressure Humidity
    00:00 +14°C° 0 mm 2 mps 734 mmHg 89%
    01:00 +14°C° 0 mm 1 mps 735 mmHg 90%
    02:00 +13°C° 0 mm 1 mps 734 mmHg 90%
    03:00 +13°C° 0 mm 1 mps 734 mmHg 91%
    04:00 +13°C° 0 mm 1 mps 734 mmHg 91%
    05:00 +14°C° 0.1 mm 1 mps 734 mmHg 90%
    06:00 +15°C° 0.1 mm 1 mps 734 mmHg 89%
    07:00 +16°C° 0.1 mm 2 mps 734 mmHg 87%
    08:00 +16°C° 0.2 mm 2 mps 734 mmHg 86%
    09:00 +17°C° 0.2 mm 2 mps 734 mmHg 85%
    10:00 +18°C° 0.2 mm 3 mps 734 mmHg 83%
    11:00 +18°C° 0.6 mm 3 mps 734 mmHg 82%
    12:00 +18°C° 0.6 mm 4 mps 734 mmHg 81%
    13:00 +19°C° 0.6 mm 4 mps 733 mmHg 79%
    14:00 +18°C° 1.8 mm 4 mps 733 mmHg 83%
    15:00 +17°C° 1.8 mm 4 mps 733 mmHg 86%
    16:00 +15°C° 1.8 mm 5 mps 733 mmHg 89%
    17:00 +15°C° 2.5 mm 4 mps 733 mmHg 90%
    18:00 +14°C° 2.5 mm 4 mps 733 mmHg 92%
    19:00 +14°C° 2.5 mm 3 mps 733 mmHg 93%
    20:00 +14°C° 1.1 mm 4 mps 733 mmHg 92%
    21:00 +14°C° 1.1 mm 5 mps 733 mmHg 92%
    22:00 +14°C° 1.1 mm 6 mps 733 mmHg 92%
    23:00 +14°C° 0.2 mm 5 mps 733 mmHg 92%

    Day after tomorrow, 22 May, Wednesday

    Time Temperature Precipitation Wind Pressure Humidity
    00:00 +13°C° 0.2 mm 5 mps 733 mmHg 93%
    01:00 +13°C° 0.2 mm 5 mps 733 mmHg 93%
    02:00 +13°C° 0.2 mm 5 mps 733 mmHg 93%
    03:00 +13°C° 0.2 mm 5 mps 733 mmHg 94%
    04:00 +13°C° 0.2 mm 5 mps 733 mmHg 94%
    05:00 +13°C° 0.2 mm 5 mps 733 mmHg 94%
    06:00 +13°C° 0.2 mm 4 mps 733 mmHg 94%
    07:00 +13°C° 0.2 mm 4 mps 734 mmHg 94%
    08:00 +14°C° 0.1 mm 4 mps 734 mmHg 93%
    09:00 +14°C° 0.1 mm 4 mps 734 mmHg 91%
    10:00 +15°C° 0.1 mm 4 mps 734 mmHg 90%
    11:00 +17°C° 0.8 mm 4 mps 735 mmHg 86%
    12:00 +18°C° 0.8 mm 4 mps 735 mmHg 81%
    13:00 +20°C° 0.8 mm 4 mps 735 mmHg 77%
    14:00 +19°C° 1 mm 4 mps 735 mmHg 78%
    15:00 +19°C° 1 mm 4 mps 735 mmHg 79%
    16:00 +19°C° 1 mm 5 mps 735 mmHg 80%
    17:00 +18°C° 0.5 mm 4 mps 735 mmHg 84%
    18:00 +17°C° 0.5 mm 4 mps 735 mmHg 88%
    19:00 +15°C° 0.5 mm 4 mps 735 mmHg 92%
    20:00 +14°C° 0.1 mm 3 mps 735 mmHg 94%
    21:00 +13°C° 0.1 mm 3 mps 735 mmHg 95%
    22:00 +13°C° 0.1 mm 3 mps 735 mmHg 97%
    23:00 +13°C° 0.3 mm 3 mps 735 mmHg 97%

    23 May, Thursday

    Time Temperature Precipitation Wind Pressure Humidity
    00:00 +13°C° 0.3 mm 3 mps 735 mmHg 97%
    01:00 +13°C° 0.3 mm 4 mps 735 mmHg 97%
    02:00 +14°C° 0.2 mm 4 mps 735 mmHg 96%
    03:00 +14°C° 0.2 mm 4 mps 736 mmHg 96%
    04:00 +14°C° 0.2 mm 5 mps 736 mmHg 95%
    05:00 +14°C° 0.2 mm 5 mps 736 mmHg 95%
    06:00 +14°C° 0.2 mm 5 mps 737 mmHg 94%
    07:00 +14°C° 0.2 mm 5 mps 737 mmHg 93%
    08:00 +15°C° 0.7 mm 6 mps 737 mmHg 92%
    09:00 +15°C° 0.7 mm 6 mps 738 mmHg 91%
    10:00 +15°C° 0.7 mm 7 mps 738 mmHg 90%
    11:00 +14°C° 0.6 mm 7 mps 739 mmHg 90%
    12:00 +12°C° 0.6 mm 8 mps 739 mmHg 91%
    13:00 +10°C° 0.6 mm 9 mps 739 mmHg 91%
    14:00 +10°C° 0.2 mm 8 mps 739 mmHg 90%
    15:00 +10°C° 0.2 mm 8 mps 740 mmHg 90%
    16:00 +9°C° 0.2 mm 8 mps 740 mmHg 89%
    17:00 +9°C° 0.1 mm 7 mps 740 mmHg 88%
    18:00 +9°C° 0.1 mm 6 mps 740 mmHg 86%
    19:00 +9°C° 0.1 mm 6 mps 741 mmHg 84%
    20:00 +9°C° 0 mm 5 mps 741 mmHg 83%
    21:00 +9°C° 0 mm 5 mps 741 mmHg 83%
    22:00 +10°C° 0 mm 5 mps 742 mmHg 82%
    23:00 +10°C° 0 mm 4 mps 742 mmHg 86%

    24 May, Friday

    Time Temperature Precipitation Wind Pressure Humidity
    00:00 +10°C° 0 mm 4 mps 742 mmHg 90%
    01:00 +8°C° 0 mm 4 mps 742 mmHg 94%
    02:00 +8°C° 0 mm 3 mps 742 mmHg 94%
    03:00 +8°C° 0 mm 3 mps 742 mmHg 94%
    04:00 +7°C° 0 mm 3 mps 742 mmHg 94%
    05:00 +8°C° 0 mm 3 mps 742 mmHg 89%
    06:00 +10°C° 0 mm 3 mps 742 mmHg 83%
    07:00 +11°C° 0 mm 4 mps 742 mmHg 77%
    08:00 +12°C° 0 mm 4 mps 742 mmHg 72%
    09:00 +14°C° 0 mm 4 mps 741 mmHg 66%
    10:00 +15°C° 0 mm 4 mps 741 mmHg 60%
    11:00 +17°C° 0 mm 4 mps 741 mmHg 59%
    12:00 +18°C° 0 mm 4 mps 741 mmHg 57%
    13:00 +19°C° 0 mm 4 mps 740 mmHg 55%
    14:00 +19°C° 0 mm 4 mps 740 mmHg 57%
    15:00 +19°C° 0 mm 4 mps 740 mmHg 59%
    16:00 +18°C° 0 mm 4 mps 739 mmHg 61%
    17:00 +17°C° 0 mm 3 mps 739 mmHg 66%
    18:00 +16°C° 0 mm 2 mps 739 mmHg 71%
    19:00 +15°C° 0 mm 1 mps 739 mmHg 77%
    20:00 +14°C° 0 mm 1 mps 739 mmHg 80%
    21:00 +13°C° 0 mm 1 mps 739 mmHg 82%
    22:00 +12°C° 0 mm 1 mps 739 mmHg 85%
    23:00 +11°C° 0 mm 1 mps 739 mmHg 86%

    25 May, Saturday

    Time Temperature Precipitation Wind Pressure Humidity
    00:00 +11°C° 0 mm 1 mps 739 mmHg 86%
    01:00 +11°C° 0 mm 1 mps 739 mmHg 87%
    02:00 +10°C° 0 mm 1 mps 739 mmHg 87%
    03:00 +10°C° 0 mm 1 mps 738 mmHg 88%
    04:00 +10°C° 0 mm 1 mps 738 mmHg 89%
    05:00 +12°C° 0 mm 1 mps 738 mmHg 83%
    06:00 +14°C° 0 mm 1 mps 738 mmHg 77%
    07:00 +16°C° 0 mm 1 mps 738 mmHg 71%
    08:00 +18°C° 0 mm 1 mps 739 mmHg 67%
    09:00 +18°C° 0 mm 2 mps 739 mmHg 63%
    10:00 +19°C° 0 mm 2 mps 739 mmHg 59%
    11:00 +20°C° 0 mm 2 mps 739 mmHg 56%
    12:00 +21°C° 0 mm 2 mps 738 mmHg 54%
    13:00 +21°C° 0 mm 2 mps 738 mmHg 52%
    14:00 +21°C° 0 mm 3 mps 738 mmHg 53%
    15:00 +21°C° 0 mm 3 mps 738 mmHg 55%
    16:00 +21°C° 0 mm 3 mps 738 mmHg 57%
    17:00 +20°C° 0 mm 3 mps 738 mmHg 64%
    18:00 +18°C° 0 mm 2 mps 738 mmHg 71%
    19:00 +17°C° 0 mm 2 mps 738 mmHg 79%
    20:00 +16°C° 0 mm 2 mps 739 mmHg 82%
    21:00 +15°C° 0 mm 2 mps 739 mmHg 86%
    22:00 +14°C° 0 mm 2 mps 740 mmHg 90%
    23:00 +13°C° 0 mm 2 mps 740 mmHg 91%
    Show more